GW3919 Weather Reports


Display with metric or nautical units.
time (UTC)temp
F
wind
direction
speed
MPH
gust
MPH
rain 1hr
in
rain 24hr
in
rain mn
in
humidity
%
barometer
mb
20260508173954 79 93 2.0 2.0 0.00 0.00 0.00 64 1012.4
20260508173451 78 338 1.0 3.0 0.00 0.00 0.00 63 1012.3
20260508172947 78 212 0.0 4.0 0.00 0.00 0.00 64 1012.3
20260508172444 78 54 0.0 3.0 0.00 0.00 0.00 64 1012.5
20260508171940 77 266 0.0 3.0 0.00 0.00 0.00 64 1012.5
20260508171437 77 7 1.0 3.0 0.00 0.00 0.00 65 1012.5
20260508170934 78 276 1.0 4.0 0.00 0.00 0.00 65 1012.7
20260508170431 76 273 4.0 4.0 0.00 0.00 0.00 65 1012.8
20260508165928 77 45 1.0 3.0 0.00 0.00 0.00 64 1013.1
20260508165426 75 4 2.0 6.0 0.00 0.00 0.00 66 1013.2
20260508164921 75 47 1.0 3.0 0.00 0.00 0.00 66 1013.4
20260508164419 74 322 2.0 3.0 0.00 0.00 0.00 68 1013.6
20260508163916 75 181 1.0 3.0 0.00 0.00 0.00 66 1013.6
20260508163414 76 274 2.0 2.0 0.00 0.00 0.00 65 1013.8
20260508162909 76 293 2.0 3.0 0.00 0.00 0.00 64 1013.6
20260508162407 77 298 0.0 4.0 0.00 0.00 0.00 64 1013.5
20260508161903 76 296 2.0 4.0 0.00 0.00 0.00 66 1013.7
20260508161401 75 241 2.0 3.0 0.00 0.00 0.00 66 1013.9
20260508160857 75 328 2.0 3.0 0.00 0.00 0.00 66 1013.8
20260508160356 75 175 1.0 3.0 0.00 0.00 0.00 66 1013.7
20260508155852 74 11 1.0 5.0 0.00 0.00 0.00 67 1014.1
20260508155349 73 291 2.0 4.0 0.00 0.00 0.00 69 1013.9
20260508154846 73 258 3.0 4.0 0.00 0.00 0.00 67 1014.2
20260508154344 72 281 3.0 4.0 0.00 0.00 0.00 68 1014.5
20260508153840 73 272 0.0 3.0 0.00 0.00 0.00 67 1014.3
20260508153338 72 326 0.0 2.0 0.00 0.00 0.00 69 1014.3
20260508152833 71 323 2.0 2.0 0.00 0.00 0.00 70 1014.3
20260508152330 71 254 1.0 3.0 0.00 0.00 0.00 70 1014.7
20260508151826 71 71 1.0 2.0 0.00 0.00 0.00 70 1014.6
20260508151324 70 14 0.0 3.0 0.00 0.00 0.00 71 1014.6
20260508150820 70 330 1.0 2.0 0.00 0.00 0.00 70 1014.6
20260508150316 70 309 2.0 2.0 0.00 0.00 0.00 70 1014.4
20260508145807 70 310 2.0 2.0 0.00 0.00 0.00 70 1014.3
20260508145306 71 241 2.0 3.0 0.00 0.00 0.00 69 1014.2
20260508144800 71 322 2.0 3.0 0.00 0.00 0.00 67 1014.3
20260508144258 71 287 0.0 2.0 0.00 0.00 0.00 70 1014.4
20260508143755 70 43 0.0 2.0 0.00 0.00 0.00 70 1014.2
20260508143252 69 40 0.0 3.0 0.00 0.00 0.00 71 1014.4
20260508142748 69 327 1.0 3.0 0.00 0.00 0.00 73 1014.5
20260508142246 68 243 0.0 3.0 0.00 0.00 0.00 73 1014.5
20260508141742 68 308 2.0 4.0 0.00 0.00 0.00 73 1014.7
20260508141240 68 302 1.0 4.0 0.00 0.00 0.00 73 1014.7
20260508140737 69 259 2.0 4.0 0.00 0.00 0.00 71 1014.7
20260508140233 70 342 2.0 4.0 0.00 0.00 0.00 70 1014.8
20260508135730 69 33 2.0 3.0 0.00 0.00 0.00 71 1014.5
20260508135226 69 287 1.0 4.0 0.00 0.00 0.00 72 1014.6
20260508134721 68 317 1.0 5.0 0.00 0.00 0.00 73 1014.8
20260508134219 68 82 2.0 2.0 0.00 0.00 0.00 75 1014.5
20260508133716 67 326 0.0 3.0 0.00 0.00 0.00 75 1014.5
20260508133214 68 312 1.0 4.0 0.00 0.00 0.00 74 1014.6
20260508132711 68 310 3.0 3.0 0.00 0.00 0.00 75 1014.4
20260508132208 68 250 2.0 2.0 0.00 0.00 0.00 75 1014.5
20260508131703 67 267 1.0 3.0 0.00 0.00 0.00 76 1014.6
20260508131200 67 288 0.0 2.0 0.00 0.00 0.00 79 1014.6
20260508130656 66 287 1.0 2.0 0.00 0.00 0.00 80 1015.0
20260508130154 67 2 1.0 2.0 0.00 0.00 0.00 79 1015.0
20260508125649 67 321 0.0 2.0 0.00 0.00 0.00 81 1014.9
20260508125146 65 181 1.0 1.0 0.00 0.00 0.00 85 1014.9
20260508124644 63 99 0.0 1.0 0.00 0.00 0.00 91 1014.8
20260508124141 61 126 0.0 2.0 0.00 0.00 0.00 92 1015.0
20260508123640 60 164 0.0 2.0 0.00 0.00 0.00 93 1014.9
20260508123137 60 173 0.0 1.0 0.00 0.00 0.00 93 1014.7
20260508122633 60 150 0.0 1.0 0.00 0.00 0.00 93 1014.8
20260508122130 60 180 0.0 1.0 0.00 0.00 0.00 93 1014.5
20260508121628 60 290 0.0 1.0 0.00 0.00 0.00 93 1014.5
20260508121126 60 306 1.0 1.0 0.00 0.00 0.00 93 1014.6
20260508120623 60 178 0.0 1.0 0.00 0.00 0.00 93 1014.8
20260508120122 60 50 0.0 1.0 0.00 0.00 0.00 93 1014.9
20260508115619 60 175 0.0 1.0 0.00 0.00 0.00 93 1014.8
20260508115115 60 66 0.0 1.0 0.00 0.00 0.00 92 1014.9
20260508114613 60 143 0.0 2.0 0.00 0.00 0.00 92 1015.1
20260508114108 60 129 0.0 1.0 0.00 0.00 0.00 93 1015.0
20260508113606 60 235 0.0 1.0 0.00 0.00 0.00 93 1014.9
20260508113104 60 345 0.0 2.0 0.00 0.00 0.00 92 1014.9
20260508112559 60 269 1.0 2.0 0.00 0.00 0.00 92 1015.0
20260508112057 60 283 0.0 2.0 0.00 0.00 0.00 92 1015.2
20260508111553 60 19 0.0 2.0 0.00 0.00 0.00 91 1015.3
20260508111051 60 173 0.0 2.0 0.00 0.00 0.00 91 1015.2
20260508110549 60 236 0.0 2.0 0.00 0.00 0.00 91 1015.4
20260508110044 60 72 0.0 2.0 0.00 0.00 0.00 92 1015.5
20260508105539 60 125 1.0 2.0 0.00 0.00 0.00 92 1015.1
20260508105037 60 152 2.0 2.0 0.00 0.00 0.00 92 1015.0
20260508104535 60 217 0.0 2.0 0.00 0.00 0.00 92 1014.5
20260508104031 60 22 0.0 1.0 0.00 0.00 0.00 91 1014.6
20260508103528 60 135 1.0 2.0 0.00 0.00 0.00 91 1014.2
20260508103025 60 152 0.0 1.0 0.00 0.00 0.00 91 1013.9
20260508102523 60 66 1.0 2.0 0.00 0.00 0.00 90 1013.9
20260508102021 60 344 0.0 1.0 0.00 0.00 0.00 90 1013.6
20260508101518 60 286 1.0 2.0 0.00 0.00 0.00 90 1013.8
20260508101015 60 334 1.0 1.0 0.00 0.00 0.00 90 1013.9
20260508100513 60 334 0.0 2.0 0.00 0.00 0.00 91 1013.8
20260508100009 60 307 0.0 1.0 0.00 0.00 0.00 91 1014.1
20260508095507 60 101 1.0 2.0 0.00 0.00 0.00 91 1014.1
20260508095003 60 89 0.0 1.0 0.00 0.00 0.00 91 1013.9
20260508094500 60 298 1.0 2.0 0.00 0.00 0.00 91 1014.0
20260508093957 60 14 1.0 2.0 0.00 0.00 0.00 90 1013.8
20260508093454 60 212 0.0 1.0 0.00 0.00 0.00 90 1014.1
20260508092952 61 127 1.0 2.0 0.00 0.00 0.00 90 1014.2
20260508092449 61 113 0.0 1.0 0.00 0.00 0.00 89 1014.2
20260508091948 62 37 0.0 0.0 0.00 0.00 0.00 89 1014.1
20260508091444 62 342 0.0 1.0 0.00 0.00 0.00 88 1014.1
20260508090942 62 212 0.0 0.0 0.00 0.00 0.00 87 1014.2
20260508090440 62 282 0.0 1.0 0.00 0.00 0.00 88 1014.2
20260508085935 62 113 0.0 1.0 0.00 0.00 0.00 88 1014.2
20260508085427 62 50 0.0 1.0 0.00 0.00 0.00 89 1014.2
20260508084923 62 6 1.0 2.0 0.00 0.00 0.00 89 1014.0
20260508084420 61 303 3.0 3.0 0.00 0.00 0.00 90 1014.2
20260508083918 61 310 0.0 1.0 0.00 0.00 0.00 91 1014.6
20260508083415 61 244 1.0 1.0 0.00 0.00 0.00 91 1014.8
20260508082914 61 66 0.0 0.0 0.00 0.00 0.00 91 1015.2
20260508082412 61 89 0.0 0.0 0.00 0.00 0.00 91 1015.3
20260508081910 61 269 0.0 1.0 0.00 0.00 0.00 90 1015.3
20260508081407 62 322 1.0 1.0 0.00 0.00 0.00 90 1015.2
20260508080903 61 141 0.0 0.0 0.00 0.00 0.00 91 1015.4
20260508080402 61 166 0.0 1.0 0.00 0.00 0.00 91 1015.4
20260508075857 61 138 3.0 4.0 0.00 0.00 0.00 91 1015.6
20260508075355 61 102 1.0 2.0 0.00 0.00 0.00 91 1015.4
20260508074853 61 98 1.0 2.0 0.00 0.00 0.00 91 1015.5
20260508074349 61 116 1.0 2.0 0.00 0.00 0.00 91 1015.4
20260508073846 61 131 1.0 2.0 0.00 0.00 0.00 90 1015.2
20260508073344 61 298 1.0 2.0 0.00 0.00 0.00 90 1015.0
20260508072840 61 53 0.0 2.0 0.00 0.00 0.00 91 1015.2
20260508072337 61 269 0.0 1.0 0.00 0.00 0.00 90 1014.9
20260508071834 61 162 0.0 1.0 0.00 0.00 0.00 91 1015.0
20260508071333 61 142 0.0 1.0 0.00 0.00 0.00 90 1015.1
20260508070830 61 129 0.0 0.0 0.00 0.00 0.00 90 1015.0
20260508070328 61 129 0.0 0.0 0.00 0.00 0.00 90 1015.2
20260508065825 61 230 0.0 0.0 0.00 0.00 0.00 90 1015.3
20260508065323 60 130 0.0 0.0 0.00 0.00 0.00 91 1015.3
20260508064821 61 243 0.0 1.0 0.00 0.00 0.00 91 1015.3
20260508064318 60 135 0.0 0.0 0.00 0.00 0.00 92 1015.5
20260508063816 60 48 0.0 1.0 0.00 0.00 0.00 92 1015.6
20260508063314 60 256 0.0 0.0 0.00 0.00 0.00 92 1015.6
20260508062810 60 89 0.0 1.0 0.00 0.00 0.00 91 1015.8
20260508062308 60 148 0.0 1.0 0.00 0.00 0.00 91 1015.6
20260508061805 60 145 0.0 2.0 0.00 0.00 0.00 91 1015.8
20260508061302 60 44 0.0 1.0 0.00 0.00 0.00 91 1015.8
20260508060758 60 129 0.0 1.0 0.00 0.00 0.00 90 1015.7
20260508060256 60 322 0.0 0.0 0.00 0.00 0.00 90 1015.8
20260508055751 60 309 0.0 0.0 0.00 0.00 0.00 90 1015.7
20260508055249 60 235 0.0 2.0 0.00 0.00 0.00 90 1015.8
20260508054745 60 336 0.0 0.0 0.00 0.00 0.00 90 1015.7
20260508054243 60 135 0.0 1.0 0.00 0.00 0.00 90 1015.8
20260508053740 60 131 0.0 1.0 0.00 0.00 0.00 90 1015.7
20260508053237 60 240 0.0 0.0 0.00 0.00 0.00 90 1015.8
20260508052734 60 142 0.0 1.0 0.00 0.00 0.00 89 1015.7
20260508052232 60 129 0.0 1.0 0.00 0.00 0.00 89 1015.6
20260508051727 60 188 0.0 0.0 0.00 0.00 0.00 89 1015.8
20260508051223 61 55 0.0 1.0 0.00 0.00 0.00 89 1015.8
20260508050720 61 132 0.0 1.0 0.00 0.00 0.00 89 1015.7
20260508050217 61 307 0.0 1.0 0.00 0.00 0.00 89 1015.6
20260508045717 61 217 0.0 0.0 0.00 0.00 0.00 89 1015.8
20260508045216 61 235 0.0 0.0 0.00 0.00 0.00 89 1015.8
20260508044713 61 122 0.0 1.0 0.00 0.00 0.00 88 1016.2
20260508044209 61 221 0.0 1.0 0.00 0.00 0.00 88 1015.9
20260508043705 61 102 0.0 1.0 0.00 0.00 0.00 88 1015.9
20260508043204 61 89 0.0 1.0 0.00 0.00 0.00 87 1015.7
20260508042659 62 135 0.0 1.0 0.00 0.00 0.00 86 1015.8
20260508042157 62 50 0.0 0.0 0.00 0.00 0.00 86 1015.7
20260508041653 62 304 0.0 1.0 0.00 0.00 0.00 86 1015.8
20260508041150 62 37 0.0 0.0 0.00 0.00 0.00 86 1015.9
20260508040646 62 37 0.0 0.0 0.00 0.00 0.00 86 1015.8
20260508040144 62 135 0.0 0.0 0.00 0.00 0.00 85 1015.7
20260508035641 62 142 0.0 1.0 0.00 0.00 0.00 85 1015.5
20260508035139 62 57 0.0 0.0 0.00 0.00 0.00 85 1015.5
20260508034635 62 135 0.0 0.0 0.00 0.00 0.00 84 1015.4
20260508034132 62 220 0.0 0.0 0.00 0.00 0.00 84 1015.4
20260508033630 62 142 0.0 0.0 0.00 0.00 0.00 83 1015.5
20260508033128 62 135 0.0 1.0 0.00 0.00 0.00 83 1015.3
20260508032624 62 139 0.0 1.0 0.00 0.00 0.00 82 1015.4
20260508032122 63 129 0.0 0.0 0.00 0.00 0.00 82 1015.5
20260508031619 63 237 0.0 0.0 0.00 0.00 0.00 81 1015.4
20260508031115 63 129 0.0 0.0 0.00 0.00 0.00 80 1015.5
20260508030611 63 224 0.0 0.0 0.00 0.00 0.00 80 1015.6
20260508030109 63 89 0.0 1.0 0.00 0.00 0.00 79 1015.4
20260508025605 63 55 0.0 1.0 0.00 0.00 0.00 79 1015.4
20260508025102 63 113 0.0 0.0 0.00 0.00 0.00 79 1015.1
20260508024558 64 235 0.0 0.0 0.00 0.00 0.00 79 1015.3
20260508024055 64 269 0.0 0.0 0.00 0.00 0.00 80 1015.2
20260508023552 64 222 0.0 1.0 0.00 0.00 0.00 79 1015.2
20260508023049 64 129 0.0 0.0 0.00 0.00 0.00 79 1015.3
20260508022545 64 129 0.0 0.0 0.00 0.00 0.00 78 1015.3
20260508022042 64 129 0.0 0.0 0.00 0.00 0.00 78 1015.3
20260508021538 64 135 0.0 1.0 0.00 0.00 0.00 77 1015.3
20260508021034 64 37 0.0 1.0 0.00 0.00 0.00 77 1015.2
20260508020532 64 212 0.0 0.0 0.00 0.00 0.00 76 1015.0
20260508020029 65 141 0.0 1.0 0.00 0.00 0.00 76 1014.9
20260508015526 65 180 0.0 1.0 0.00 0.00 0.00 75 1014.9
20260508015023 65 87 0.0 0.0 0.00 0.00 0.00 75 1015.1
20260508014520 65 222 0.0 1.0 0.00 0.00 0.00 75 1014.9
20260508014016 65 135 0.0 0.0 0.00 0.00 0.00 75 1015.2
20260508013512 65 235 0.0 1.0 0.00 0.00 0.00 74 1015.1
20260508013010 65 55 0.0 0.0 0.00 0.00 0.00 74 1015.2
20260508012508 65 50 0.0 0.0 0.00 0.00 0.00 73 1015.0
20260508012005 66 336 0.0 1.0 0.00 0.00 0.00 74 1015.1
20260508011503 66 150 0.0 0.0 0.00 0.00 0.00 73 1014.9
20260508011000 66 13 0.0 1.0 0.00 0.00 0.00 73 1014.9
20260508010456 66 55 0.0 0.0 0.00 0.00 0.00 71 1014.9
20260508005953 67 89 0.0 0.0 0.00 0.00 0.00 70 1014.9
20260508005450 67 253 1.0 2.0 0.00 0.00 0.00 70 1014.7
20260508004947 67 246 0.0 1.0 0.00 0.00 0.00 69 1014.8
20260508004443 67 88 0.0 1.0 0.00 0.00 0.00 69 1014.8
20260508003940 68 350 0.0 2.0 0.00 0.00 0.00 69 1014.9
20260508003437 68 281 0.0 4.0 0.00 0.00 0.00 68 1015.0
20260508002934 68 329 0.0 2.0 0.00 0.00 0.00 68 1015.0
20260508002431 68 229 0.0 1.0 0.00 0.00 0.00 68 1015.2
20260508001926 68 118 0.0 2.0 0.00 0.00 0.00 67 1015.4
20260508001423 68 23 0.0 2.0 0.00 0.00 0.00 67 1015.1
20260508000920 68 48 0.0 2.0 0.00 0.00 0.00 67 1015.1
20260508000415 68 350 0.0 2.0 0.00 0.00 0.00 67 1015.1
20260507235913 68 327 0.0 1.0 0.00 0.00 0.00 67 1015.2
20260507235409 69 119 0.0 2.0 0.00 0.00 0.00 66 1015.0
20260507234906 69 13 1.0 2.0 0.00 0.00 0.00 66 1015.1
20260507234403 69 304 0.0 2.0 0.00 0.00 0.00 65 1015.1
20260507233859 69 352 1.0 2.0 0.00 0.00 0.00 66 1015.1
20260507233356 69 260 1.0 2.0 0.00 0.00 0.00 65 1015.4
20260507232855 69 103 0.0 4.0 0.00 0.00 0.00 65 1015.2
20260507232351 69 326 0.0 2.0 0.00 0.00 0.00 65 1015.0
20260507231848 69 51 2.0 2.0 0.00 0.00 0.00 66 1015.0
20260507231345 69 0 0.0 2.0 0.00 0.00 0.00 66 1015.2
20260507230841 69 345 0.0 2.0 0.00 0.00 0.00 66 1015.2
20260507230338 69 294 0.0 2.0 0.00 0.00 0.00 66 1015.2
20260507225838 69 347 0.0 2.0 0.00 0.00 0.00 65 1015.4
20260507225334 70 25 2.0 3.0 0.00 0.00 0.00 65 1015.2
20260507224831 70 343 0.0 3.0 0.00 0.00 0.00 65 1015.4
20260507224328 70 225 2.0 3.0 0.00 0.00 0.00 65 1015.2
20260507223824 70 98 2.0 2.0 0.00 0.00 0.00 65 1015.5
20260507223320 71 322 0.0 2.0 0.00 0.00 0.00 65 1015.3
20260507222817 71 278 2.0 3.0 0.00 0.00 0.00 64 1015.2
20260507222313 72 300 2.0 2.0 0.00 0.00 0.00 62 1015.4
20260507221811 72 119 0.0 2.0 0.00 0.00 0.00 62 1015.4
20260507221307 72 194 2.0 3.0 0.00 0.00 0.00 59 1015.3
20260507220803 72 280 1.0 3.0 0.00 0.00 0.00 59 1015.3
20260507220302 73 264 1.0 2.0 0.00 0.00 0.00 59 1015.4
20260507215757 73 299 0.0 1.0 0.00 0.00 0.00 57 1015.5
20260507215255 73 263 0.0 3.0 0.00 0.00 0.00 56 1015.5
20260507214752 73 267 2.0 2.0 0.00 0.00 0.00 57 1015.3
20260507214249 73 124 0.0 2.0 0.00 0.00 0.00 58 1015.5
20260507213744 73 207 1.0 2.0 0.00 0.00 0.00 55 1015.8
20260507213242 72 286 2.0 3.0 0.00 0.00 0.00 55 1015.7
20260507212738 73 121 0.0 1.0 0.00 0.00 0.00 55 1015.9
20260507212235 73 336 1.0 2.0 0.00 0.00 0.00 56 1015.9
20260507211731 73 287 2.0 2.0 0.00 0.00 0.00 56 1015.8
20260507211228 73 245 0.0 4.0 0.00 0.00 0.00 56 1016.0
20260507210725 73 263 1.0 3.0 0.00 0.00 0.00 57 1016.1
20260507210221 73 194 0.0 3.0 0.00 0.00 0.00 55 1015.9
20260507205718 74 299 1.0 3.0 0.00 0.00 0.00 56 1015.9
20260507205214 74 260 1.0 3.0 0.00 0.00 0.00 57 1015.8
20260507204711 74 309 0.0 3.0 0.00 0.00 0.00 55 1015.8
20260507204209 73 303 0.0 3.0 0.00 0.00 0.00 56 1015.8
20260507203707 73 262 2.0 4.0 0.00 0.00 0.00 55 1015.9
20260507203204 73 269 3.0 4.0 0.00 0.00 0.00 55 1015.9
20260507202659 73 260 0.0 5.0 0.00 0.00 0.00 57 1015.8
20260507202155 74 244 3.0 6.0 0.00 0.00 0.00 55 1016.0
20260507201650 75 150 2.0 2.0 0.00 0.00 0.00 53 1016.3
20260507201148 74 261 0.0 4.0 0.00 0.00 0.00 56 1016.4
20260507200644 73 59 2.0 4.0 0.00 0.00 0.00 56 1016.7
20260507200140 73 267 1.0 2.0 0.00 0.00 0.00 55 1016.5
20260507195637 73 295 1.0 3.0 0.00 0.00 0.00 55 1016.5
20260507195134 73 317 2.0 4.0 0.00 0.00 0.00 54 1016.4
20260507194631 73 132 2.0 4.0 0.00 0.00 0.00 54 1016.6
20260507194126 73 284 4.0 5.0 0.00 0.00 0.00 55 1016.9
20260507193623 75 229 1.0 6.0 0.00 0.00 0.00 54 1016.8
20260507193120 74 156 0.0 6.0 0.00 0.00 0.00 52 1017.0
20260507192617 75 238 2.0 5.0 0.00 0.00 0.00 53 1017.0
20260507192114 75 228 2.0 5.0 0.00 0.00 0.00 49 1017.1
20260507191609 75 274 2.0 3.0 0.00 0.00 0.00 56 1017.1
20260507191106 73 48 0.0 4.0 0.00 0.00 0.00 55 1017.2
20260507190603 74 179 3.0 3.0 0.00 0.00 0.00 51 1016.9
20260507185600 74 295 1.0 4.0 0.00 0.00 0.00 53 1017.1
20260507185056 74 246 0.0 4.0 0.00 0.00 0.00 54 1017.0
20260507184555 75 273 3.0 5.0 0.00 0.00 0.00 52 1017.2
20260507184052 74 103 2.0 4.0 0.00 0.00 0.00 52 1016.9
20260507183548 73 209 2.0 5.0 0.00 0.00 0.00 53 1017.2
20260507183045 74 293 1.0 3.0 0.00 0.00 0.00 53 1017.3
20260507182542 73 131 0.0 4.0 0.00 0.00 0.00 52 1017.9
20260507182037 74 347 3.0 3.0 0.00 0.00 0.00 54 1017.4
20260507181535 73 317 0.0 4.0 0.00 0.00 0.00 52 1017.4
20260507181031 73 278 0.0 4.0 0.00 0.00 0.00 54 1017.6
20260507180527 73 148 4.0 5.0 0.00 0.00 0.00 52 1017.7
20260507180024 73 128 1.0 5.0 0.00 0.00 0.00 54 1017.9
20260507175520 72 237 2.0 4.0 0.00 0.00 0.00 54 1018.0
20260507175018 72 103 1.0 4.0 0.00 0.00 0.00 54 1017.9
20260507174515 71 259 3.0 7.0 0.00 0.00 0.00 56 1017.8